Regional Weather Roundup
Issued by NWS Northern Indiana

Home | Current Version | Previous Version | Text Only | Print | Product List | Glossary On
Versions: 1 2 3 4 5 6 7 8 9 10 11 12 13 14 15 16 17 18 19 20 21 22 23 24 25 26 27 28 29 30 31 32 33 34 35 36 37 38 39 40 41 42 43 44 45 46 47 48 49 50
000
ASUS43 KIWX 040610
RWRIWX

KIWX WEATHER ROUNDUP
NATIONAL WEATHER SERVICE NORTHERN INDIANA
100 AM EST SUN DEC 04 2016

NOTE: "FAIR" INDICATES FEW OR NO CLOUDS BELOW 12,000 FEET WITH NO
SIGNIFICANT WEATHER AND/OR OBSTRUCTIONS TO VISIBILITY.

* THESE STATIONS ARE NOT UNDER NWS QUALITY CONTROL. THEY ALSO MAY NOT
  REPORT WEATHER SUCH AS PRECIPITATION OR FOG.

INZ001>027-040700-
NORTHERN INDIANA

CITY           SKY/WX    TMP DP  RH WIND       PRES   REMARKS
GARY*          PTCLDY    32  28  84 CALM      30.29S
VALPARAISO     CLOUDY    32  25  75 S3        30.27F
6HR MIN TEMP:  32; 6HR MAX TEMP:  34;

MICHIGAN CITY* CLOUDY    32  27  80 CALM      30.28F
LAPORTE*       CLOUDY    33  33 100 CALM      30.27F
6HR MIN TEMP:  33; 6HR MAX TEMP:  35;

KNOX*          CLOUDY    32  16  51 S5        30.27F WCI  27
SOUTH BEND     CLOUDY    32  25  75 S3        30.27F
6HR MIN TEMP:  32; 6HR MAX TEMP:  33;

GOSHEN         CLOUDY    32  25  75 SW3       30.27F
6HR MIN TEMP:  32; 6HR MAX TEMP:  34;

MONTICELLO*    CLOUDY    33  23  67 CALM      30.27F
6HR MIN TEMP:  33; 6HR MAX TEMP:  33;

LOGANSPORT*    CLOUDY    32  28  86 CALM      30.28F
ROCHESTER*     CLOUDY    32  32 100 CALM      30.27F
WARSAW*        CLOUDY    32  23  69 CALM      30.28S
ANGOLA*        CLOUDY    34  28  80 CALM      30.26F
FORT WAYNE     CLOUDY    32  27  81 CALM      30.27F
6HR MIN TEMP:  31; 6HR MAX TEMP:  34;

HUNTINGTON*    CLOUDY    32  27  82 CALM      30.27F
6HR MIN TEMP:  31; 6HR MAX TEMP:  33;

PERU/GRISSOM   CLOUDY    31  28  88 CALM      30.25F
6HR MIN TEMP:  31; 6HR MAX TEMP:  34;

MARION*        CLOUDY    31  29  91 CALM      30.27F
6HR MIN TEMP:  25; 6HR MAX TEMP:  89;


$$
INZ028>050-040700-
CENTRAL INDIANA

CITY           SKY/WX    TMP DP  RH WIND       PRES   REMARKS
LAFAYETTE      CLOUDY    33  29  85 CALM      30.27F
6HR MIN TEMP:  33; 6HR MAX TEMP:  34;

KOKOMO*        CLOUDY    31  28  89 NE3       30.28F
6HR MIN TEMP:  31; 6HR MAX TEMP:  35;

MUNCIE*        CLOUDY    32  29  88 CALM      30.26F
6HR MIN TEMP:  31; 6HR MAX TEMP:  36;

INDIANAPOLIS   CLOUDY    34  27  75 E3        30.25F
6HR MIN TEMP:  32; 6HR MAX TEMP:  34;


$$
MIZ043>046-050>051-056>058-064>065-071>073-077>080-040700-
SOUTHWEST LOWER MICHIGAN

CITY           SKY/WX    TMP DP  RH WIND       PRES   REMARKS
BATTLE CREEK   CLOUDY    34  27  75 S3        30.26F
6HR MIN TEMP:  34; 6HR MAX TEMP:  35;

BENTON HARBOR  CLOUDY    34  25  69 S6        30.26F WCI  29
6HR MIN TEMP:  34; 6HR MAX TEMP:  36;

COLDWATER*     CLOUDY    33  29  83 CALM      30.27S
6HR MIN TEMP:  33; 6HR MAX TEMP:  36;

HILLSDALE*     CLOUDY    32  28  86 CALM      30.25S
HOLLAND        CLOUDY    35  29  78 SE5       30.25F WCI  31
6HR MIN TEMP:  34; 6HR MAX TEMP:  36;

GRAND RAPIDS   CLOUDY    34  28  79 SE3       30.26F
6HR MIN TEMP:  34; 6HR MAX TEMP:  36;

KALAMAZOO      CLOUDY    35  23  61 S5        30.26F WCI  31
6HR MIN TEMP:  34; 6HR MAX TEMP:  36;

STURGIS*       CLOUDY    33  29  85 CALM      30.26F
6HR MIN TEMP:  33; 6HR MAX TEMP:  35;

THREE RIVERS*  CLOUDY    34  29  83 S3        30.27S
6HR MIN TEMP:  34; 6HR MAX TEMP:  36;


$$
OHZ001>008-015>018-024>025-040700-
NORTHWEST OHIO

CITY           SKY/WX    TMP DP  RH WIND       PRES   REMARKS
WAUSEON*       CLOUDY    34  28  80 S3        30.27F
DEFIANCE       CLOUDY    35  27  72 S3        30.28F
6HR MIN TEMP:  35; 6HR MAX TEMP:  37;

FINDLAY        CLOUDY    36  23  59 CALM      30.28S
6HR MIN TEMP:  35; 6HR MAX TEMP:  37;

TOLEDO EXPRESS CLOUDY    34  28  79 CALM      30.28F
6HR MIN TEMP:  34; 6HR MAX TEMP:  36;

TOLEDO METCALF CLOUDY    36  29  75 SW5       30.29S
6HR MIN TEMP:  35; 6HR MAX TEMP:  38;

LIMA           CLOUDY    32  28  85 E3        30.27S
6HR MIN TEMP:  30; 6HR MAX TEMP:  35;


$$
AND FOR LAKE MICHIGAN COASTAL AND OPEN LAKE BUOY OBSERVATIONS

STATION/POSITION TEMP    WIND        PRES    VSBY  WAVE
                 AIR SEA DIR/SP/G                  HT/PER
                 (F)     (DEG/KT/KT) (MB)    (MI)  (FT/S)
CALUMET HARBOR    32     230/  4/  5 1024.5F
MICHIGAN CITY     33     160/  6/  8   N/A
BURNS HARBOR      33     200/  8/ 10 1025.4F
SAINT JOSEPH      34     170/  3/  7 1024.7
SOUTH LAKE BUOY   35 48  280/  2/  8 1025.1S         1

$$
&&




USA.gov is the U.S. government's official web portal to all federal, state and local government web resources and services.